CAPE
0 0 0 0 0 0 0 0 0 0 4 0 4 0 0 5 0 0 2 2 2 88 164 485 965 1188 1203 927 930 797 759 712 1057 1362 1410 1496 1556 1560 1521 1519 1478 1555 1609 1530
0 0 0 0 0 0 0 0 0 0 0 0 0 0 0 19 0 0 8 24 60 77 5 104 547 1137 1394 1291 1085 1127 1155 1017 1179 1568 1591 1577 1706 1705 1697 1632 1632 1691 1634 1630
1 0 0 0 0 0 0 0 0 0 0 0 0 0 0 0 0 0 0 17 96 140 298 105 221 700 1207 1460 1294 1317 1493 1343 1429 1625 1689 1699 1672 1775 1778 1776 1799 1805 1804 1763
11 3 0 0 76 0 1 0 0 0 0 0 0 9 0 0 0 0 0 0 70 179 205 352 297 309 847 1069 1443 1575 1571 1627 1659 1765 1782 1857 1846 1929 1970 1886 1930 1899 1853 1876
13 2 0 1 0 0 1 25 4 0 0 0 0 0 0 0 0 0 0 0 9 133 279 484 673 344 547 911 1299 1474 1597 1686 1765 1771 1837 1902 1917 1978 1973 2044 2043 2076 2110 2137
19 18 16 24 1 0 0 4 0 2 1 0 0 0 5 0 0 0 0 0 7 238 626 1225 1175 642 540 967 1345 1634 1697 1646 1753 1810 1907 1939 2045 2034 2026 1968 1885 1759 1821 1952
19 25 10 10 0 0 0 2 4 6 6 4 0 0 0 0 0 0 0 0 0 317 902 1606 844 532 855 1099 1377 1692 1490 1416 1556 1668 1983 2041 2140 2136 2149 2002 1906 2068 2032 2047
9 33 6 1 1 0 1 2 6 6 7 10 4 0 0 0 0 0 0 0 0 82 650 1622 990 602 1383 1412 1397 1594 1524 1479 1687 1802 1645 1693 2034 2140 2157 2207 2263 2393 2330 2306
37 16 58 5 10 7 4 4 2 3 3 6 7 3 0 0 0 0 0 0 0 0 248 955 1629 1058 1290 1466 1518 1591 1650 1742 1792 1870 1803 1697 2055 2189 2181 2285 2194 2341 2316 2382
1 67 20 0 6 7 7 6 3 3 3 5 9 1 0 0 0 0 0 0 0 0 0 0 318 1114 1607 1711 1584 1677 1789 1914 1975 2099 2083 1907 2105 2280 2265 2204 2228 2113 2254 2253
0 5 0 3 5 5 4 14 2 2 1 2 8 2 1 0 0 0 0 0 0 0 0 0 0 0 257 1580 1499 1504 1765 1868 1992 2092 2052 2277 2187 2200 2234 2296 2306 2414 2278 2446
0 2 3 2 5 3 4 3 6 2 0 0 0 5 4 0 0 0 0 0 0 0 0 0 0 0 0 9 1206 2156 2017 1723 1666 1627 1878 1875 2011 2074 1219 993 1116 1519 1837 2309
2 6 4 4 4 10 3 3 4 2 0 0 2 7 6 0 0 0 0 0 0 0 0 0 0 0 0 0 0 436 1402 2029 2297 2227 2128 1949 2292 2498 2711 1708 1232 1442 1589 1644
7 3 3 6 6 8 7 3 2 12 9 4 3 0 0 0 0 0 0 0 0 1 0 0 0 0 0 0 0 0 0 51 1221 1525 1830 2062 1337 1686 2419 1756 1845 2607 1334 1448
4 12 10 10 10 7 7 3 3 4 4 5 4 2 0 1 1 6 12 6 5 2 2 2 1 0 0 0 0 0 0 0 1 126 811 643 154 27 196 1103 775 2293 2519 1388
18 15 3 5 6 6 6 3 2 3 4 3 3 7 3 1 11 5 6 10 6 6 5 2 3 1 0 0 0 0 0 0 0 0 0 132 536 706 641 1022 1525 1876 1695 1651
15 17 13 2 3 5 6 7 3 4 4 5 4 4 2 3 1 3 3 3 4 4 5 5 5 2 0 0 0 0 0 0 0 0 0 0 21 254 581 748 680 1050 1327 1580
28 25 29 22 8 1 4 6 4 2 3 5 4 4 2 2 2 2 4 3 2 5 4 3 3 2 1 0 0 0 0 0 0 0 0 0 0 0 3 45 286 429 342 452
20 24 38 34 27 14 1 2 4 1 1 2 3 3 3 3 2 4 3 3 3 3 2 3 3 4 3 4 2 0 0 0 0 0 0 0 0 0 0 0 3 187 323 278
38 17 18 29 38 29 16 12 3 0 0 1 1 2 3 3 2 2 2 2 3 4 3 3 4 4 3 3 0 0 0 3 1 0 0 0 0 0 0 0 0 20 292 327
28 34 15 7 21 33 18 23 10 11 0 1 0 1 2 1 3 3 1 2 2 8 7 5 7 5 6 1 0 2 3 6 7 5 1 0 0 0 6 39 170 10 42 29
17 26 25 10 10 19 32 22 7 13 14 7 11 3 0 0 1 2 2 2 2 3 4 3 6 8 4 2 2 2 4 6 8 10 10 9 9 7 6 4 2 1 7 7
28 17 20 24 13 11 14 20 23 16 15 4 13 5 7 9 2 1 2 1 3 0 2 6 6 4 4 3 2 2 2 3 3 4 5 6 7 8 8 8 8 8 8 8
35 17 11 14 17 13 16 14 21 22 14 18 28 15 5 8 11 6 5 1 3 1 1 2 6 3 3 2 3 2 2 2 2 2 2 2 3 4 5 5 6 5 5 5
30 26 19 13 17 14 13 9 15 14 16 13 17 18 8 15 13 3 5 8 3 10 11 0 1 4 6 3 2 2 2 2 2 3 2 2 2 2 2 2 2 3 3 2
26 21 30 12 12 24 20 23 7 17 18 20 14 13 6 22 11 2 11 10 11 3 4 5 6 8 7 7 6 3 2 2 1 0 1 2 2 2 2 2 2 3 3 3
25 1 21 15 24 19 22 19 13 15 12 21 13 15 20 18 13 12 1 1 4 12 9 5 10 6 6 5 6 8 6 2 1 3 1 0 0 1 2 2 2 2 1 2
CIN
0 0 0 0 0 0 0 0 -1 -3 -7 0 -5 0 0 -163 0 -39 -170 -119 -17 -142 -120 -132 -156 -168 -209 -179 -148 -121 -127 -157 -150 -132 -118 -105 -93 -95 -90 -92 -102 -102 -92 -95
0 0 0 0 0 0 0 0 0 0 0 0 0 0 0 -239 0 0 -263 -247 -238 -209 -208 -161 -173 -198 -211 -216 -208 -153 -142 -148 -143 -131 -136 -118 -108 -100 -99 -100 -113 -101 -111 -105
-1 0 0 0 0 0 0 0 0 0 0 0 0 0 0 0 0 0 0 -355 -351 -350 -309 -286 -200 -232 -242 -245 -221 -211 -186 -186 -153 -149 -143 -142 -135 -112 -110 -115 -106 -124 -123 -123
-5 -3 0 0 -20 0 -1 0 0 0 0 0 0 -9 0 0 0 0 0 -31 -480 -442 -415 -380 -285 -213 -260 -249 -237 -216 -199 -204 -198 -173 -149 -139 -130 -126 -127 -123 -117 -136 -154 -152
-4 -5 0 -5 0 0 0 -4 -2 0 0 0 0 0 0 0 0 0 0 0 -298 -524 -520 -468 -369 -281 -261 -282 -280 -257 -261 -249 -224 -199 -172 -138 -136 -136 -138 -121 -125 -143 -149 -157
-7 -5 -3 -66 0 0 0 -14 0 -1 -1 -1 0 0 -5 0 0 0 0 0 -242 -499 -450 -336 -358 -333 -272 -321 -312 -318 -339 -323 -256 -220 -194 -173 -162 -152 -158 -159 -170 -168 -196 -193
-2 -3 -4 -49 0 0 0 -7 0 -1 0 -1 -1 0 0 0 0 0 0 0 0 -420 -355 -264 -246 -335 -264 -334 -354 -371 -301 -312 -266 -235 -200 -189 -177 -165 -164 -166 -154 -184 -173 -185
-2 -2 -2 0 -1 0 0 0 0 0 0 0 0 -1 0 0 0 0 0 0 0 -376 -348 -242 -278 -310 -282 -362 -335 -306 -287 -296 -274 -254 -233 -201 -175 -162 -148 -152 -155 -136 -148 -151
-4 -8 -5 -2 0 0 0 0 0 0 0 0 0 -1 0 0 0 0 0 0 0 0 -364 -262 -173 -240 -256 -269 -285 -282 -268 -266 -258 -229 -212 -177 -181 -160 -165 -175 -175 -174 -164 -158
0 -2 0 0 -1 0 -1 0 0 0 0 0 0 0 0 0 0 0 0 0 0 0 0 0 -419 -202 -186 -209 -253 -236 -232 -221 -197 -181 -178 -188 -175 -163 -170 -181 -201 -187 -172 -164
0 -2 0 0 0 0 0 0 0 -1 0 0 0 -1 -1 0 0 0 0 0 0 0 0 0 0 0 -469 -151 -198 -257 -223 -234 -223 -208 -216 -175 -174 -168 -180 -181 -182 -171 -163 -135
0 0 0 0 0 0 0 0 0 0 0 0 0 0 0 0 0 0 0 0 0 0 0 0 0 0 0 -206 -200 -100 -141 -227 -253 -218 -194 -176 -160 -170 -353 -451 -421 -321 -305 -223
0 0 0 0 0 0 0 0 0 0 0 0 0 0 0 0 0 0 0 0 0 0 0 0 0 0 0 0 0 -366 -265 -126 -121 -148 -160 -199 -143 -85 -45 -223 -375 -387 -357 -359
0 0 0 0 0 0 0 0 0 -2 -2 0 0 0 0 0 0 0 0 0 -1 -1 0 0 0 0 0 0 0 0 0 -696 -214 -220 -238 -219 -310 -220 -125 -128 -233 -141 -418 -443
-1 0 0 0 0 0 0 0 0 0 -2 -2 0 0 0 0 0 0 0 -1 -1 -1 0 0 -1 0 0 0 0 0 0 0 -235 -601 -350 -423 -510 -383 -471 -17 -102 -72 -67 -446
-1 -2 -1 0 0 0 0 0 0 0 0 0 -1 0 0 0 0 0 0 0 0 0 0 0 0 -1 0 0 0 0 0 0 0 0 0 -452 -373 -366 -298 -77 -82 -81 -105 -142
-1 -1 -1 -1 0 0 0 0 0 0 0 0 0 0 0 0 0 0 0 0 0 0 0 0 0 0 0 0 0 0 0 0 0 0 0 0 -406 -314 -248 -165 -187 -153 -180 -206
-1 -1 -1 -1 -1 0 0 0 0 0 0 0 0 0 0 0 0 0 0 0 0 0 0 0 0 0 -1 0 -1 0 0 0 0 0 0 0 0 0 -343 -390 -264 -241 -285 -358
-1 -1 -1 -1 -1 -1 -2 0 0 0 0 0 0 0 0 0 0 0 0 0 0 0 0 0 0 -1 -1 0 0 0 0 0 0 0 0 0 0 0 0 0 -116 -284 -269 -303
-1 -1 -1 -1 -1 -1 -1 0 -3 0 0 0 0 0 0 0 0 0 0 0 0 0 0 0 0 -1 0 0 0 0 -1 0 0 -1 0 0 0 0 0 0 0 -424 -325 -298
-1 -1 -1 -1 -1 -2 -1 -1 0 -1 -4 -2 -1 0 0 0 0 0 0 0 0 0 -1 0 0 -1 0 0 0 0 0 0 0 0 0 0 0 0 -158 -483 -469 -645 -557 -545
-2 -1 -1 -2 -1 -2 -1 -1 -2 -1 -1 -1 0 -2 -1 0 0 0 0 0 0 0 0 0 0 0 0 0 0 0 0 0 0 0 0 0 0 0 0 0 0 0 0 0
-2 -1 -2 -1 -1 -1 -2 -2 -2 -1 -1 -7 -1 -1 -1 0 -1 0 0 0 0 0 0 0 0 0 0 0 0 0 0 0 0 0 0 0 0 0 0 0 0 0 0 0
-2 -2 -2 -2 -1 -2 -2 -2 -2 -1 -2 -2 -2 -2 -5 -1 -1 -1 -1 -1 -1 -1 0 0 0 0 0 0 0 0 0 0 0 0 0 0 0 0 0 0 0 0 0 0
-2 -2 -2 -2 -2 -2 -2 -1 -2 -2 -3 -3 -2 -2 -4 -1 -2 -3 -3 -1 -2 -1 -1 -1 0 0 0 0 0 0 0 0 0 0 0 0 0 0 0 0 0 0 0 0
-2 -4 -3 -7 -2 -3 -3 -2 -3 -2 -1 -2 -5 -4 -4 -2 -2 -3 -2 -2 -2 -4 -3 -2 -1 -1 -1 0 0 0 0 0 0 0 0 0 0 0 0 0 0 0 0 0
-2 -3 -5 -10 -4 -4 -3 -3 -7 -3 -3 -4 -3 -4 -3 -4 -6 -1 -7 -10 -4 -2 -3 -2 -1 -2 -1 -2 -2 -1 0 0 0 0 0 0 0 0 0 0 0 0 0 0
Wind_Speed
40 37 37 42 44 44 47 47 55 49 46 41 30 26 27 27 26 26 24 22 22 25 26 22 14 21 20 19 21 25 26 25 24 25 26 29 30 25 22 16 26 43 13 16
41 40 39 45 45 46 49 49 49 47 46 37 36 35 33 29 28 28 27 27 25 24 27 27 18 25 21 20 19 22 24 25 25 26 26 27 27 25 24 20 28 20 18 30
40 34 37 49 49 50 49 48 48 53 46 38 38 38 33 31 30 30 30 30 29 29 30 30 26 13 23 21 19 20 24 24 24 24 25 26 27 28 26 22 31 28 18 36
37 34 47 33 25 34 44 45 46 45 41 38 39 36 30 29 31 32 32 32 32 32 33 34 33 21 14 17 20 22 28 26 22 23 24 26 28 28 28 28 30 30 27 36
38 37 38 32 28 30 32 36 34 40 40 39 39 41 42 31 31 33 34 35 35 35 36 36 37 31 14 17 19 21 24 25 21 20 21 22 25 26 27 29 32 31 30 25
33 40 45 29 27 26 28 42 29 32 35 36 36 43 32 30 31 32 34 35 37 37 37 40 41 35 18 18 19 20 21 23 22 19 18 19 21 22 25 27 32 32 29 22
39 40 39 25 27 25 40 39 32 32 33 34 35 34 33 29 29 29 31 32 33 34 35 36 36 32 23 19 22 22 18 22 23 21 17 17 19 20 21 23 28 30 29 25
31 37 45 25 27 31 29 31 31 32 32 34 34 33 31 29 27 26 26 26 27 29 30 31 32 32 29 26 22 18 18 20 23 22 20 17 16 18 20 22 27 27 25 25
24 28 24 26 31 31 30 33 34 33 33 34 35 34 31 29 27 25 23 23 23 23 22 22 24 28 31 28 25 20 17 17 20 21 21 20 18 17 17 21 27 25 25 25
14 25 30 32 31 30 32 33 33 32 32 33 34 32 30 27 26 24 22 21 20 19 17 17 18 20 22 26 25 21 18 15 16 18 19 20 18 18 18 19 24 25 22 22
12 27 29 27 27 29 32 32 32 32 30 30 31 31 29 27 25 24 22 21 18 17 16 15 15 16 18 23 25 23 19 16 15 16 19 19 21 21 21 22 21 21 21 21
10 24 25 27 28 29 31 32 32 33 31 31 30 30 28 26 25 24 24 21 19 17 16 14 13 12 13 16 18 20 18 18 18 17 18 21 20 24 24 25 27 30 26 24
12 23 23 25 26 26 29 31 30 33 33 33 30 28 27 26 24 24 22 21 20 19 17 16 14 13 14 14 16 17 13 19 17 17 18 20 20 21 25 25 32 33 35 35
21 18 18 20 21 23 25 28 29 26 25 26 26 25 25 24 23 22 23 22 21 19 18 19 18 17 17 16 18 16 18 19 17 16 17 18 15 15 20 31 26 30 37 35
19 21 18 19 19 20 20 19 21 20 20 21 22 22 22 23 22 20 19 20 20 19 20 19 19 18 19 19 20 20 21 19 19 20 19 22 31 28 27 34 36 31 29 24
22 23 23 21 19 19 18 17 16 17 18 19 19 17 17 20 19 19 19 19 20 20 20 20 20 20 20 20 22 22 24 22 24 25 23 21 23 18 16 21 22 28 27 23
24 24 24 23 20 20 21 17 15 13 15 17 18 16 15 17 17 19 20 21 21 22 22 23 23 23 22 23 23 23 25 23 22 19 18 16 14 14 19 23 22 20 19 19
19 23 23 22 22 23 20 17 14 13 13 15 16 16 18 19 21 20 21 20 21 22 24 24 25 25 25 24 24 25 25 26 26 25 23 23 21 21 24 26 25 25 25 24
22 20 22 23 22 21 21 20 16 14 14 15 14 13 13 14 17 20 21 21 23 25 25 27 27 27 26 26 26 26 26 26 26 26 26 27 27 27 27 30 32 31 30 30
25 24 21 21 22 22 21 20 20 18 15 14 13 12 12 14 16 18 17 18 20 23 24 26 26 28 28 27 28 27 28 28 28 30 29 30 30 30 30 31 33 34 34 34
25 24 24 23 22 22 21 21 19 17 16 16 15 13 13 15 16 16 17 18 20 21 21 22 24 25 24 25 26 27 29 29 29 30 31 32 33 31 31 31 30 30 30 32
25 23 22 22 22 21 19 19 18 17 18 18 17 17 17 17 18 17 18 18 19 20 20 21 21 21 21 22 23 24 26 27 29 30 30 31 32 33 33 33 34 33 35 34
24 23 22 22 22 21 21 19 18 18 18 18 18 17 17 16 18 18 18 19 20 21 20 20 20 20 20 19 19 20 23 25 27 28 29 29 29 30 31 32 31 32 32 31
24 23 23 22 21 21 21 20 19 17 17 17 17 17 18 18 18 17 18 17 18 19 19 20 21 21 21 20 20 19 20 21 22 22 24 25 26 27 27 28 28 28 29 29
23 23 22 22 21 21 21 20 18 17 17 15 15 15 16 17 17 17 17 18 19 18 18 19 21 22 22 22 20 20 20 20 21 20 21 21 22 23 24 24 24 24 25 25
21 22 22 21 21 21 20 19 17 17 17 16 15 15 15 16 16 17 18 18 19 19 19 20 21 21 21 21 21 21 21 21 21 20 20 21 21 21 20 20 21 21 21 22
16 19 22 19 18 20 19 17 16 16 16 17 14 15 15 16 16 16 17 18 18 19 19 20 21 21 20 20 20 20 21 21 21 21 21 21 21 21 21 20 20 20 20 20
Wind_Direction
256 260 257 252 248 247 243 243 239 242 242 240 241 254 261 261 259 259 260 262 257 252 249 250 199 188 197 201 229 231 231 228 227 231 235 240 243 244 244 210 197 224 205 195
258 257 257 253 250 248 245 244 244 245 246 247 251 254 256 260 261 259 260 259 262 259 254 253 244 187 192 201 211 226 229 227 231 233 234 237 241 243 246 242 251 253 198 198
256 259 258 250 249 248 247 245 245 241 247 251 251 251 256 259 261 261 260 263 263 262 258 257 258 227 191 200 222 222 231 229 227 228 232 236 240 244 245 243 250 253 250 204
255 261 246 251 263 255 252 244 244 247 247 253 251 253 258 263 263 262 264 265 265 263 257 255 253 255 220 214 221 230 237 235 230 227 232 238 241 243 245 247 248 251 255 247
253 253 252 261 259 256 250 238 245 248 251 254 255 252 251 264 267 266 266 266 265 265 259 258 251 253 226 204 211 220 230 232 225 221 226 233 237 241 244 246 248 251 254 258
259 249 245 255 259 266 258 240 251 256 254 255 255 242 248 265 270 269 271 269 268 267 264 256 247 249 229 201 212 211 218 222 226 223 218 223 234 237 242 246 248 250 254 257
252 251 251 263 265 264 240 240 259 260 258 255 249 253 259 267 270 274 276 274 275 271 266 263 252 245 233 219 199 193 227 230 232 230 222 225 235 239 239 244 249 251 256 260
256 251 246 269 262 250 258 264 264 263 261 256 253 257 261 265 270 277 280 280 284 276 270 265 251 242 238 236 240 227 231 230 232 232 232 227 227 237 242 246 249 253 257 262
261 257 271 271 263 265 266 264 261 265 262 257 252 254 259 262 268 276 281 281 287 283 277 267 255 243 239 243 237 230 226 227 231 234 233 236 233 233 237 244 248 252 256 261
177 260 263 268 267 261 263 268 262 262 261 256 251 252 257 260 263 272 277 280 287 290 279 265 263 252 250 240 235 229 227 221 225 226 230 233 235 238 241 246 249 252 256 260
166 238 266 256 257 267 262 264 258 256 257 256 250 250 256 258 261 267 270 275 285 290 279 270 269 263 254 245 233 228 228 222 218 225 231 236 241 245 247 250 250 252 257 262
155 262 260 257 265 266 262 264 260 250 250 251 252 251 255 256 261 264 263 269 277 281 274 270 268 268 258 248 238 230 230 231 230 232 236 239 241 246 253 259 259 258 263 264
234 284 272 271 270 270 266 263 257 247 246 246 250 250 253 255 260 261 261 263 267 267 268 264 261 264 260 256 249 239 240 243 234 235 237 236 240 251 259 264 260 262 261 261
329 308 292 292 276 278 276 263 255 247 244 247 247 251 254 254 259 261 259 262 263 269 265 263 260 262 265 270 255 251 242 242 244 246 241 231 231 255 271 269 264 268 261 262
328 335 317 310 308 307 296 281 260 243 238 246 247 253 254 253 257 262 265 265 264 270 266 268 266 268 271 272 270 258 254 252 258 258 260 257 252 252 291 283 235 267 266 273
325 335 340 333 326 326 312 312 289 250 240 247 248 256 263 258 260 263 268 270 266 268 272 275 275 274 278 276 271 264 262 263 262 262 266 266 271 255 253 273 279 268 274 281
331 332 335 341 332 333 337 317 304 279 266 261 265 274 268 265 272 271 272 275 274 275 274 278 278 279 281 277 273 269 268 269 272 276 275 271 262 261 260 265 273 279 283 291
314 333 335 334 337 341 336 328 317 304 292 284 281 275 269 273 274 276 276 280 281 283 280 278 285 281 278 278 277 273 273 271 273 276 278 275 274 271 270 271 276 276 280 289
318 312 329 337 336 336 341 339 330 319 313 305 292 290 288 288 286 281 287 289 286 282 290 286 283 280 282 281 278 275 273 273 274 275 275 274 272 270 271 271 271 275 281 286
330 325 309 320 334 332 333 338 339 341 330 324 321 315 305 307 311 292 305 304 300 292 294 295 292 286 285 283 279 276 277 276 276 275 276 275 273 273 274 275 276 278 280 283
329 325 327 318 318 326 331 332 334 337 331 338 335 317 320 326 331 330 321 319 314 312 312 309 304 295 298 294 290 285 281 278 277 278 278 278 277 277 278 281 283 286 287 287
336 331 326 326 328 327 325 332 335 335 340 345 338 340 336 334 334 342 342 332 324 323 328 326 321 320 312 304 295 291 288 286 285 284 284 284 282 281 281 283 284 287 287 289
339 333 331 331 329 327 331 328 330 331 335 340 343 343 343 343 341 331 327 329 336 338 338 338 337 337 335 324 316 309 302 297 293 292 290 289 288 288 287 287 288 289 290 292
343 341 332 326 326 329 325 321 324 329 333 340 341 345 347 351 348 346 345 342 344 352 350 346 345 349 347 341 338 331 325 320 315 308 303 298 294 293 292 292 292 294 294 296
345 342 341 331 326 324 322 322 324 323 324 333 338 346 350 356 356 352 350 351 347 345 347 351 352 353 354 353 348 347 347 342 333 326 321 319 313 306 301 300 301 301 302 302
346 342 343 339 335 329 328 323 328 322 323 321 325 332 339 345 348 348 351 350 354 353 350 348 345 345 346 348 348 351 350 349 346 340 335 333 330 322 319 316 315 314 313 310
11 356 341 345 342 339 336 330 335 331 328 323 329 332 330 325 331 331 337 339 340 344 348 351 350 354 351 348 347 350 352 349 346 342 344 344 340 333 325 325 325 320 319 318